Location: *
(43.9900°N, 3.4811°E)
Time: 13:43:22
(UTC+00:00)

Meteor 2-16 Rocket - Pass Details

Date: 25 August 2019
Orbit: 941 x 957 km, 82.6° (Epoch: 22 October)

Event Time Altitude Azimuth Distance (km) Brightness Sun altitude
Rises 20:29:49 0° 351° (N) 3,639 8.2 -19.3°
Reaches altitude 10° 20:32:19 10° 352° (N) 2,687 7.4 -19.6°
Maximum altitude 20:38:29 86° 83° (E) 958 4.4 -20.5°
Enters shadow 20:41:43 30° 170° (S) 1,629 5.3 -21.0°
